Location: ???? ?????
(30.0052°N, 31.2891°E)
Time: 07:04:34
(UTC+00:00)

Iridium 16 - Pass Details

Date: 02 February 2023
Orbit: 766 x 768 km, 86.4° (Epoch: 23 March)

Event Time Altitude Azimuth Distance (km) Brightness Sun altitude
Rises 03:25:49 0° 193° (SSW) 3,218 8.7 -17.4°
Reaches altitude 10° 03:28:12 10° 199° (SSW) 2,296 7.9 -16.9°
Maximum altitude 03:33:10 49° 274° (W) 978 5.6 -15.8°
Drops below altitude 10° 03:38:10 10° 349° (N) 2,310 7.8 -14.8°
Sets 03:40:36 0° 355° (N) 3,240 8.6 -14.2°
